• In Netherlands
  • List of Countries
  • For 7 days
  • Water Temperature
  • Satellite Maps
  • Weather Map
  • Weather Widgets
  • user-avatar
    Login

    Hourly Weather La Rioja

    Today, 22 April, Sunday

    Time Temperature Precipitation Wind Pressure Humidity
    00:00 +27°C° 0.2 mm 2 mps 712 mmHg 66%
    01:00 +26°C° 0.2 mm 2 mps 711 mmHg 67%
    02:00 +26°C° 0.2 mm 1 mps 711 mmHg 68%
    03:00 +25°C° 0 mm 1 mps 711 mmHg 70%
    04:00 +25°C° 0 mm 1 mps 711 mmHg 71%
    05:00 +24°C° 0 mm 1 mps 711 mmHg 72%
    06:00 +25°C° 0 mm 1 mps 711 mmHg 68%
    07:00 +26°C° 0 mm 1 mps 711 mmHg 64%
    08:00 +27°C° 0 mm 1 mps 712 mmHg 61%
    09:00 +29°C° 0 mm 1 mps 712 mmHg 54%
    10:00 +30°C° 0 mm 1 mps 712 mmHg 48%
    11:00 +32°C° 0 mm 1 mps 712 mmHg 41%
    12:00 +34°C° 0 mm 2 mps 712 mmHg 38%
    13:00 +35°C° 0 mm 2 mps 711 mmHg 34%
    14:00 +36°C° 0 mm 2 mps 711 mmHg 31%
    15:00 +36°C° 0 mm 2 mps 711 mmHg 31%
    16:00 +36°C° 0 mm 2 mps 710 mmHg 31%
    17:00 +36°C° 0 mm 2 mps 710 mmHg 32%
    18:00 +34°C° 0.1 mm 2 mps 711 mmHg 37%
    19:00 +31°C° 0.1 mm 2 mps 712 mmHg 41%
    20:00 +29°C° 0.1 mm 2 mps 712 mmHg 46%
    21:00 +29°C° 0.3 mm 2 mps 713 mmHg 50%
    22:00 +28°C° 0.3 mm 2 mps 714 mmHg 53%
    23:00 +28°C° 0.3 mm 2 mps 714 mmHg 56%

    Tomorrow, 23 April, Monday

    Time Temperature Precipitation Wind Pressure Humidity
    00:00 +27°C° 0.5 mm 3 mps 714 mmHg 58%
    01:00 +26°C° 0.5 mm 3 mps 715 mmHg 59%
    02:00 +26°C° 0.5 mm 4 mps 715 mmHg 61%
    03:00 +25°C° 0.1 mm 4 mps 715 mmHg 64%
    04:00 +25°C° 0.1 mm 3 mps 715 mmHg 66%
    05:00 +24°C° 0.1 mm 3 mps 714 mmHg 69%
    06:00 +25°C° 0 mm 3 mps 715 mmHg 68%
    07:00 +25°C° 0 mm 3 mps 715 mmHg 68%
    08:00 +25°C° 0 mm 3 mps 715 mmHg 67%
    09:00 +26°C° 0.1 mm 3 mps 716 mmHg 64%
    10:00 +27°C° 0.1 mm 3 mps 716 mmHg 60%
    11:00 +28°C° 0.1 mm 3 mps 716 mmHg 56%
    12:00 +29°C° 0 mm 3 mps 715 mmHg 55%
    13:00 +29°C° 0 mm 3 mps 714 mmHg 54%
    14:00 +30°C° 0 mm 3 mps 714 mmHg 53%
    15:00 +30°C° 0 mm 2 mps 714 mmHg 54%
    16:00 +30°C° 0 mm 2 mps 713 mmHg 55%
    17:00 +29°C° 0 mm 2 mps 713 mmHg 56%
    18:00 +28°C° 0 mm 2 mps 714 mmHg 60%
    19:00 +27°C° 0 mm 2 mps 714 mmHg 65%
    20:00 +26°C° 0 mm 2 mps 715 mmHg 70%
    21:00 +26°C° 0 mm 2 mps 715 mmHg 71%
    22:00 +26°C° 0 mm 2 mps 716 mmHg 72%
    23:00 +25°C° 0 mm 2 mps 716 mmHg 73%

    Day after tomorrow, 24 April, Tuesday

    Time Temperature Precipitation Wind Pressure Humidity
    00:00 +25°C° 0 mm 2 mps 716 mmHg 74%
    01:00 +25°C° 0 mm 2 mps 716 mmHg 75%
    02:00 +24°C° 0 mm 2 mps 715 mmHg 75%
    03:00 +24°C° 0 mm 2 mps 715 mmHg 76%
    04:00 +24°C° 0 mm 2 mps 715 mmHg 76%
    05:00 +24°C° 0 mm 3 mps 715 mmHg 76%
    06:00 +24°C° 0 mm 3 mps 715 mmHg 76%
    07:00 +24°C° 0 mm 3 mps 715 mmHg 75%
    08:00 +24°C° 0 mm 3 mps 716 mmHg 74%
    09:00 +25°C° 0 mm 3 mps 716 mmHg 70%
    10:00 +26°C° 0 mm 3 mps 716 mmHg 66%
    11:00 +28°C° 0 mm 3 mps 716 mmHg 62%
    12:00 +29°C° 0 mm 3 mps 715 mmHg 59%
    13:00 +29°C° 0 mm 3 mps 714 mmHg 56%
    14:00 +30°C° 0 mm 3 mps 714 mmHg 53%
    15:00 +30°C° 0 mm 3 mps 714 mmHg 54%
    16:00 +30°C° 0 mm 3 mps 714 mmHg 55%
    17:00 +30°C° 0 mm 3 mps 714 mmHg 57%
    18:00 +29°C° 0 mm 3 mps 714 mmHg 63%
    19:00 +27°C° 0 mm 3 mps 715 mmHg 70%
    20:00 +26°C° 0 mm 2 mps 716 mmHg 77%
    21:00 +26°C° 0 mm 2 mps 716 mmHg 79%
    22:00 +25°C° 0 mm 2 mps 716 mmHg 81%
    23:00 +25°C° 0 mm 1 mps 717 mmHg 83%

    25 April, Wednesday

    Time Temperature Precipitation Wind Pressure Humidity
    00:00 +25°C° 0 mm 1 mps 717 mmHg 83%
    01:00 +24°C° 0 mm 2 mps 716 mmHg 83%
    02:00 +24°C° 0 mm 2 mps 716 mmHg 84%
    03:00 +24°C° 0.1 mm 2 mps 716 mmHg 83%
    04:00 +24°C° 0.1 mm 2 mps 716 mmHg 82%
    05:00 +24°C° 0.1 mm 2 mps 716 mmHg 81%
    06:00 +24°C° 0.1 mm 2 mps 716 mmHg 79%
    07:00 +24°C° 0.1 mm 2 mps 716 mmHg 77%
    08:00 +24°C° 0.1 mm 2 mps 717 mmHg 75%
    09:00 +25°C° 0 mm 2 mps 717 mmHg 71%
    10:00 +27°C° 0 mm 2 mps 716 mmHg 67%
    11:00 +28°C° 0 mm 2 mps 716 mmHg 63%
    12:00 +28°C° 0 mm 3 mps 715 mmHg 60%
    13:00 +29°C° 0 mm 3 mps 714 mmHg 57%
    14:00 +30°C° 0 mm 3 mps 714 mmHg 54%
    15:00 +30°C° 0 mm 3 mps 713 mmHg 55%
    16:00 +30°C° 0 mm 3 mps 713 mmHg 55%
    17:00 +30°C° 0 mm 3 mps 712 mmHg 55%
    18:00 +28°C° 0 mm 3 mps 713 mmHg 61%
    19:00 +27°C° 0 mm 2 mps 713 mmHg 67%
    20:00 +26°C° 0 mm 2 mps 713 mmHg 73%
    21:00 +26°C° 0 mm 2 mps 713 mmHg 74%
    22:00 +25°C° 0 mm 2 mps 713 mmHg 74%
    23:00 +25°C° 0 mm 2 mps 713 mmHg 75%

    26 April, Thursday

    Time Temperature Precipitation Wind Pressure Humidity
    00:00 +25°C° 0 mm 2 mps 712 mmHg 76%
    01:00 +24°C° 0 mm 2 mps 712 mmHg 76%
    02:00 +24°C° 0 mm 2 mps 711 mmHg 77%
    03:00 +23°C° 0 mm 2 mps 711 mmHg 77%
    04:00 +23°C° 0 mm 2 mps 710 mmHg 77%
    05:00 +23°C° 0 mm 2 mps 710 mmHg 78%
    06:00 +23°C° 0 mm 2 mps 710 mmHg 74%
    07:00 +24°C° 0 mm 2 mps 710 mmHg 71%
    08:00 +24°C° 0 mm 2 mps 710 mmHg 68%
    09:00 +26°C° 0 mm 2 mps 710 mmHg 61%
    10:00 +28°C° 0 mm 2 mps 709 mmHg 54%
    11:00 +30°C° 0 mm 2 mps 709 mmHg 48%
    12:00 +31°C° 0 mm 2 mps 708 mmHg 42%
    13:00 +32°C° 0 mm 2 mps 707 mmHg 37%
    14:00 +35°C° 0 mm 2 mps 706 mmHg 32%
    15:00 +34°C° 0 mm 2 mps 706 mmHg 32%
    16:00 +34°C° 0 mm 2 mps 706 mmHg 32%
    17:00 +34°C° 0 mm 2 mps 705 mmHg 32%
    18:00 +31°C° 0 mm 2 mps 706 mmHg 38%
    19:00 +29°C° 0 mm 2 mps 706 mmHg 43%
    20:00 +27°C° 0 mm 1 mps 707 mmHg 48%
    21:00 +27°C° 0 mm 1 mps 707 mmHg 49%
    22:00 +26°C° 0 mm 1 mps 708 mmHg 49%
    23:00 +26°C° 0 mm 1 mps 708 mmHg 49%

    27 April, Friday

    Time Temperature Precipitation Wind Pressure Humidity
    00:00 +26°C° 0 mm 1 mps 708 mmHg 51%
    01:00 +25°C° 0 mm 1 mps 708 mmHg 53%
    02:00 +25°C° 0 mm 1 mps 708 mmHg 55%
    03:00 +24°C° 0 mm 2 mps 708 mmHg 55%
    04:00 +24°C° 0 mm 2 mps 708 mmHg 55%
    05:00 +23°C° 0 mm 2 mps 708 mmHg 55%
    06:00 +24°C° 0 mm 2 mps 709 mmHg 53%
    07:00 +25°C° 0 mm 2 mps 710 mmHg 50%
    08:00 +26°C° 0 mm 2 mps 711 mmHg 48%
    09:00 +27°C° 0 mm 3 mps 711 mmHg 41%
    10:00 +29°C° 0 mm 5 mps 712 mmHg 33%
    11:00 +32°C° 0 mm 6 mps 712 mmHg 25%
    12:00 +32°C° 0 mm 6 mps 712 mmHg 25%
    13:00 +32°C° 0 mm 6 mps 711 mmHg 24%
    14:00 +32°C° 0 mm 6 mps 711 mmHg 23%
    15:00 +32°C° 0 mm 5 mps 711 mmHg 25%
    16:00 +30°C° 0 mm 5 mps 711 mmHg 26%
    17:00 +29°C° 0 mm 4 mps 711 mmHg 28%
    18:00 +28°C° 0 mm 4 mps 712 mmHg 31%
    19:00 +26°C° 0 mm 3 mps 712 mmHg 34%
    20:00 +24°C° 0 mm 3 mps 713 mmHg 37%
    21:00 +22°C° 0 mm 3 mps 713 mmHg 38%
    22:00 +21°C° 0 mm 3 mps 713 mmHg 39%
    23:00 +21°C° 0 mm 3 mps 714 mmHg 40%
    Show more